FLOCK 1E-7

Last updated on July 16, 2016, 5:37 p.m. UTC

1 40726U 98067GJ  16198.36113068  .09099678  12342-4  11474-2 0  9995
2 40726  51.6188 223.5089 0008199 305.9387  54.5797 16.35073135 57778

Satellite is not in orbit.